EXACTVIEW-1 (ADS-1B)

Last updated on Mon Sep 07 2026 00:02:45 GMT+0000 (Coordinated Universal Time)

1 38709U 12039C 26249.26902500 .00000050 00000+0 41177-4 0 9997 2 38709 98.9859 8.5234 0009917 300.6887 59.3314 14.25004048734251
UTC large
Height (km)
Speed (km/s)
/
Latitude / Longitude
Inclination (degrees)
Orbital Period (minutes)
Azimuth
Elevation
Range (km)
Doppler Factor

Next 0 passes for location: London (51.5072 / 0.1276)

No passes found over London.